| time (UTC) | temp F | wind direction | speed knots | gust knots | rain 1hr in | rain 24hr in | rain mn in | humidity % | barometer mb |
| 20260504160303 | 77 | 24 | 1.7 | 1.7 | 0.00 | 0.00 | 0.00 | 67 | 1021.7 |
| 20260504150728 | 72 | 347 | 0.0 | 0.9 | 0.00 | 0.00 | 0.00 | 72 | 1022.3 |
| 20260504150225 | 73 | 72 | 4.3 | 5.2 | 0.00 | 0.00 | 0.00 | 72 | 1022.5 |
| 20260504141154 | 71 | 18 | 0.9 | 1.7 | 0.00 | 0.00 | 0.00 | 74 | 1023.0 |
| 20260504140651 | 70 | 335 | 0.9 | 1.7 | 0.00 | 0.00 | 0.00 | 75 | 1023.2 |
| 20260504140146 | 70 | 358 | 0.9 | 0.9 | 0.00 | 0.00 | 0.00 | 75 | 1023.3 |
| 20260504130615 | 66 | 354 | 0.9 | 1.7 | 0.00 | 0.00 | 0.00 | 81 | 1023.8 |
| 20260504130112 | 66 | 44 | 4.3 | 7.8 | 0.00 | 0.00 | 0.00 | 82 | 1023.7 |
| 20260504110456 | 62 | 236 | 4.3 | 6.1 | 0.00 | 0.00 | 0.00 | 89 | 1022.8 |
| 20260504100413 | 60 | 87 | 3.5 | 5.2 | 0.00 | 0.00 | 0.00 | 91 | 1022.6 |
| 20260504081800 | 59 | 116 | 7.0 | 8.7 | 0.00 | 0.00 | 0.00 | 92 | 1021.4 |
| 20260504081256 | 59 | 57 | 4.3 | 6.1 | 0.00 | 0.00 | 0.00 | 93 | 1021.4 |
| 20260504080753 | 59 | 23 | 0.9 | 1.7 | 0.00 | 0.00 | 0.00 | 93 | 1021.1 |
| 20260504080249 | 59 | 87 | 2.6 | 4.3 | 0.00 | 0.00 | 0.00 | 93 | 1021.0 |
| 20260504070217 | 60 | 87 | 7.8 | 8.7 | 0.00 | 0.00 | 0.00 | 92 | 1022.2 |
| 20260504060138 | 60 | 23 | 0.9 | 1.7 | 0.00 | 0.00 | 0.00 | 90 | 1022.3 |
| 20260504050606 | 60 | 140 | 3.5 | 4.3 | 0.00 | 0.00 | 0.00 | 90 | 1022.7 |
| 20260504045600 | 60 | 81 | 12.2 | 14.8 | 0.00 | 0.00 | 0.00 | 89 | 1022.3 |
| 20260504045054 | 60 | 94 | 9.6 | 11.3 | 0.00 | 0.00 | 0.00 | 89 | 1022.7 |
| 20260504044552 | 60 | 53 | 5.2 | 9.6 | 0.00 | 0.00 | 0.00 | 89 | 1022.8 |
| 20260504044049 | 60 | 84 | 4.3 | 5.2 | 0.00 | 0.00 | 0.00 | 89 | 1022.7 |
| 20260504043547 | 60 | 91 | 7.8 | 8.7 | 0.00 | 0.00 | 0.00 | 90 | 1022.9 |
| 20260504043044 | 60 | 101 | 7.8 | 9.6 | 0.00 | 0.00 | 0.00 | 90 | 1022.4 |
| 20260504042541 | 60 | 116 | 9.6 | 11.3 | 0.00 | 0.00 | 0.00 | 90 | 1023.0 |
| 20260504042038 | 60 | 80 | 5.2 | 7.0 | 0.00 | 0.00 | 0.00 | 90 | 1022.8 |
| 20260504041533 | 60 | 88 | 7.0 | 7.8 | 0.00 | 0.00 | 0.00 | 90 | 1022.9 |
| 20260504041029 | 60 | 90 | 3.5 | 5.2 | 0.00 | 0.00 | 0.00 | 90 | 1023.0 |
| 20260504040527 | 60 | 23 | 5.2 | 7.8 | 0.00 | 0.00 | 0.00 | 90 | 1023.2 |
| 20260504040024 | 60 | 36 | 1.7 | 1.7 | 0.00 | 0.00 | 0.00 | 91 | 1023.4 |
| 20260504035521 | 60 | 122 | 2.6 | 6.1 | 0.00 | 0.00 | 0.00 | 91 | 1023.0 |
| 20260504035017 | 59 | 71 | 6.1 | 8.7 | 0.00 | 0.00 | 0.00 | 91 | 1023.2 |
| 20260504034515 | 59 | 25 | 4.3 | 6.1 | 0.00 | 0.00 | 0.00 | 92 | 1023.5 |
| 20260504034012 | 59 | 74 | 5.2 | 7.0 | 0.00 | 0.00 | 0.00 | 92 | 1023.3 |
| 20260504033510 | 59 | 102 | 5.2 | 7.0 | 0.00 | 0.00 | 0.00 | 92 | 1023.4 |
| 20260504033007 | 59 | 88 | 9.6 | 11.3 | 0.00 | 0.00 | 0.00 | 93 | 1023.5 |
| 20260504032503 | 59 | 83 | 3.5 | 5.2 | 0.00 | 0.00 | 0.00 | 93 | 1023.6 |
| 20260504032000 | 59 | 95 | 7.8 | 9.6 | 0.00 | 0.00 | 0.00 | 92 | 1023.7 |
| 20260504031456 | 59 | 74 | 5.2 | 7.0 | 0.00 | 0.00 | 0.00 | 92 | 1023.6 |
| 20260504030954 | 59 | 95 | 5.2 | 7.8 | 0.00 | 0.00 | 0.00 | 92 | 1023.6 |
| 20260504030451 | 59 | 101 | 2.6 | 4.3 | 0.00 | 0.00 | 0.00 | 91 | 1023.8 |
| 20260504025946 | 59 | 22 | 2.6 | 4.3 | 0.00 | 0.01 | 0.01 | 91 | 1023.8 |
| 20260504025444 | 59 | 196 | 3.5 | 4.3 | 0.00 | 0.01 | 0.01 | 91 | 1023.7 |
| 20260504024941 | 59 | 158 | 3.5 | 5.2 | 0.00 | 0.01 | 0.01 | 91 | 1023.7 |
| 20260504024438 | 59 | 76 | 3.5 | 4.3 | 0.00 | 0.01 | 0.01 | 90 | 1023.8 |
| 20260504023934 | 59 | 6 | 2.6 | 2.6 | 0.00 | 0.01 | 0.01 | 90 | 1023.8 |
| 20260504023431 | 59 | 93 | 7.8 | 9.6 | 0.00 | 0.01 | 0.01 | 90 | 1023.8 |
| 20260504022927 | 59 | 353 | 2.6 | 2.6 | 0.00 | 0.01 | 0.01 | 90 | 1023.6 |
| 20260504022423 | 59 | 343 | 1.7 | 1.7 | 0.00 | 0.01 | 0.01 | 90 | 1023.8 |
| 20260504021920 | 59 | 101 | 1.7 | 2.6 | 0.00 | 0.01 | 0.01 | 91 | 1023.9 |
| 20260504021417 | 59 | 99 | 6.1 | 7.8 | 0.00 | 0.01 | 0.01 | 91 | 1023.8 |
| 20260504020914 | 59 | 56 | 1.7 | 4.3 | 0.00 | 0.01 | 0.01 | 91 | 1023.6 |
| 20260504020411 | 59 | 91 | 7.0 | 8.7 | 0.00 | 0.01 | 0.01 | 91 | 1023.9 |
| 20260504015908 | 59 | 92 | 5.2 | 7.8 | 0.00 | 0.01 | 0.01 | 91 | 1024.0 |
| 20260504015403 | 59 | 203 | 2.6 | 4.3 | 0.00 | 0.01 | 0.01 | 91 | 1023.9 |
| 20260504014900 | 59 | 2 | 2.6 | 2.6 | 0.00 | 0.01 | 0.01 | 91 | 1023.9 |
| 20260504014355 | 59 | 148 | 6.1 | 7.0 | 0.00 | 0.01 | 0.01 | 91 | 1024.1 |
| 20260504013853 | 59 | 220 | 2.6 | 2.6 | 0.00 | 0.01 | 0.01 | 91 | 1024.0 |
| 20260504013351 | 59 | 99 | 6.1 | 7.0 | 0.00 | 0.01 | 0.01 | 91 | 1024.0 |
| 20260504012847 | 59 | 139 | 2.6 | 6.1 | 0.00 | 0.01 | 0.01 | 91 | 1024.0 |
| 20260504012345 | 59 | 206 | 2.6 | 5.2 | 0.00 | 0.01 | 0.01 | 91 | 1024.1 |
| 20260504011842 | 59 | 153 | 5.2 | 6.1 | 0.00 | 0.01 | 0.01 | 91 | 1024.1 |
| 20260504011339 | 59 | 118 | 4.3 | 6.1 | 0.00 | 0.01 | 0.01 | 91 | 1024.0 |
| 20260504010835 | 59 | 303 | 1.7 | 2.6 | 0.00 | 0.01 | 0.01 | 91 | 1024.3 |
| 20260504010330 | 59 | 140 | 2.6 | 4.3 | 0.00 | 0.01 | 0.01 | 91 | 1024.2 |
| 20260504005827 | 59 | 134 | 2.6 | 2.6 | 0.00 | 0.01 | 0.01 | 91 | 1024.0 |
| 20260504005324 | 59 | 144 | 5.2 | 6.1 | 0.00 | 0.01 | 0.01 | 91 | 1024.5 |
| 20260504004822 | 59 | 120 | 2.6 | 4.3 | 0.00 | 0.01 | 0.01 | 91 | 1024.5 |
| 20260504004319 | 59 | 142 | 5.2 | 7.0 | 0.00 | 0.01 | 0.01 | 91 | 1024.1 |
| 20260504003815 | 59 | 238 | 5.2 | 7.0 | 0.00 | 0.01 | 0.01 | 92 | 1024.5 |
| 20260504003313 | 59 | 124 | 4.3 | 5.2 | 0.00 | 0.01 | 0.01 | 92 | 1024.3 |
| 20260504002809 | 59 | 40 | 1.7 | 2.6 | 0.00 | 0.01 | 0.01 | 93 | 1024.2 |
| 20260504002306 | 58 | 213 | 4.3 | 6.1 | 0.00 | 0.01 | 0.01 | 93 | 1024.3 |
| 20260504001804 | 58 | 85 | 3.5 | 5.2 | 0.00 | 0.01 | 0.01 | 94 | 1024.1 |
| 20260504001301 | 58 | 221 | 5.2 | 7.8 | 0.00 | 0.01 | 0.01 | 95 | 1024.3 |
| 20260504000757 | 58 | 143 | 2.6 | 13.0 | 0.00 | 0.01 | 0.01 | 97 | 1024.2 |
| 20260504000254 | 58 | 87 | 3.5 | 6.1 | 0.00 | 0.01 | 0.01 | 98 | 1024.3 |
| 20260503235752 | 58 | 116 | 3.5 | 5.2 | 0.00 | 0.01 | 0.01 | 98 | 1024.3 |
| 20260503235249 | 58 | 110 | 6.1 | 7.8 | 0.00 | 0.01 | 0.01 | 98 | 1024.5 |
| 20260503234747 | 58 | 209 | 6.1 | 11.3 | 0.00 | 0.01 | 0.01 | 98 | 1024.1 |
| 20260503234245 | 58 | 123 | 3.5 | 5.2 | 0.00 | 0.01 | 0.01 | 98 | 1024.7 |
| 20260503233742 | 58 | 272 | 5.2 | 7.0 | 0.00 | 0.01 | 0.01 | 98 | 1024.2 |
| 20260503233238 | 58 | 206 | 4.3 | 7.0 | 0.00 | 0.01 | 0.01 | 97 | 1024.3 |
| 20260503232735 | 58 | 188 | 1.7 | 2.6 | 0.00 | 0.01 | 0.01 | 97 | 1024.5 |
| 20260503232232 | 58 | 175 | 2.6 | 5.2 | 0.00 | 0.01 | 0.01 | 97 | 1024.2 |
| 20260503231730 | 58 | 318 | 2.6 | 4.3 | 0.00 | 0.01 | 0.01 | 97 | 1024.5 |
| 20260503231226 | 58 | 78 | 3.5 | 6.1 | 0.00 | 0.01 | 0.01 | 98 | 1024.5 |
| 20260503230722 | 58 | 150 | 4.3 | 6.1 | 0.00 | 0.01 | 0.01 | 98 | 1024.2 |
| 20260503230220 | 58 | 119 | 7.8 | 11.3 | 0.00 | 0.01 | 0.01 | 97 | 1024.1 |
| 20260503225717 | 58 | 77 | 2.6 | 4.3 | 0.00 | 0.01 | 0.01 | 98 | 1024.2 |
| 20260503225217 | 58 | 162 | 4.3 | 7.0 | 0.00 | 0.01 | 0.01 | 98 | 1024.0 |
| 20260503224715 | 58 | 122 | 7.8 | 11.3 | 0.00 | 0.01 | 0.01 | 98 | 1024.2 |
| 20260503224213 | 58 | 218 | 1.7 | 2.6 | 0.00 | 0.01 | 0.01 | 98 | 1024.0 |
| 20260503223710 | 59 | 167 | 6.1 | 7.8 | 0.00 | 0.01 | 0.01 | 98 | 1024.1 |
| 20260503223207 | 59 | 184 | 4.3 | 6.1 | 0.00 | 0.01 | 0.01 | 98 | 1024.1 |
| 20260503222704 | 59 | 63 | 1.7 | 1.7 | 0.00 | 0.01 | 0.01 | 98 | 1023.9 |
| 20260503222201 | 59 | 117 | 3.5 | 5.2 | 0.00 | 0.01 | 0.01 | 97 | 1023.8 |
| 20260503221700 | 59 | 331 | 5.2 | 8.7 | 0.00 | 0.01 | 0.01 | 96 | 1023.7 |
| 20260503221157 | 59 | 107 | 2.6 | 5.2 | 0.00 | 0.01 | 0.01 | 96 | 1023.5 |
| 20260503220653 | 59 | 180 | 4.3 | 6.1 | 0.00 | 0.01 | 0.01 | 95 | 1023.6 |
| 20260503220150 | 59 | 71 | 4.3 | 7.0 | 0.00 | 0.01 | 0.01 | 95 | 1023.6 |
| 20260503215647 | 59 | 91 | 6.1 | 7.8 | 0.00 | 0.01 | 0.01 | 96 | 1023.6 |
| 20260503215143 | 59 | 279 | 2.6 | 2.6 | 0.00 | 0.01 | 0.01 | 96 | 1023.7 |
| 20260503214642 | 58 | 164 | 7.0 | 8.7 | 0.00 | 0.01 | 0.01 | 97 | 1023.7 |
| 20260503214138 | 58 | 32 | 2.6 | 4.3 | 0.00 | 0.01 | 0.01 | 97 | 1023.4 |
| 20260503213632 | 58 | 13 | 2.6 | 5.2 | 0.00 | 0.01 | 0.01 | 98 | 1023.7 |
| 20260503213128 | 58 | 137 | 1.7 | 1.7 | 0.00 | 0.01 | 0.01 | 98 | 1023.4 |
| 20260503212625 | 58 | 83 | 0.9 | 1.7 | 0.00 | 0.01 | 0.01 | 98 | 1023.4 |
| 20260503212123 | 58 | 17 | 1.7 | 2.6 | 0.00 | 0.01 | 0.01 | 98 | 1023.6 |
| 20260503211620 | 58 | 345 | 1.7 | 2.6 | 0.00 | 0.01 | 0.01 | 98 | 1023.3 |
| 20260503211115 | 58 | 111 | 1.7 | 1.7 | 0.00 | 0.01 | 0.01 | 98 | 1023.2 |
| 20260503210613 | 59 | 80 | 2.6 | 2.6 | 0.00 | 0.01 | 0.01 | 98 | 1023.3 |
| 20260503210109 | 58 | 104 | 2.6 | 4.3 | 0.00 | 0.01 | 0.01 | 98 | 1023.4 |
| 20260503205605 | 59 | 105 | 6.1 | 8.7 | 0.00 | 0.01 | 0.01 | 97 | 1023.5 |
| 20260503205101 | 59 | 86 | 1.7 | 1.7 | 0.00 | 0.01 | 0.01 | 97 | 1023.5 |
| 20260503204558 | 59 | 88 | 4.3 | 6.1 | 0.00 | 0.01 | 0.01 | 96 | 1023.3 |
| 20260503204055 | 59 | 0 | 2.6 | 5.2 | 0.00 | 0.01 | 0.01 | 96 | 1023.5 |
| 20260503203552 | 59 | 51 | 3.5 | 5.2 | 0.00 | 0.01 | 0.01 | 96 | 1023.3 |
| 20260503203049 | 59 | 71 | 1.7 | 2.6 | 0.00 | 0.01 | 0.01 | 96 | 1023.3 |
| 20260503202547 | 59 | 164 | 5.2 | 6.1 | 0.00 | 0.01 | 0.01 | 96 | 1023.4 |
| 20260503202045 | 59 | 233 | 2.6 | 2.6 | 0.00 | 0.01 | 0.01 | 95 | 1023.3 |
| 20260503201543 | 59 | 225 | 2.6 | 2.6 | 0.00 | 0.01 | 0.01 | 95 | 1023.3 |
| 20260503201040 | 59 | 3 | 3.5 | 6.1 | 0.00 | 0.01 | 0.01 | 95 | 1023.3 |
| 20260503200536 | 59 | 119 | 4.3 | 6.1 | 0.00 | 0.01 | 0.01 | 95 | 1023.0 |
| 20260503200033 | 59 | 107 | 6.1 | 8.7 | 0.00 | 0.01 | 0.01 | 95 | 1023.3 |
| 20260503195530 | 59 | 83 | 2.6 | 2.6 | 0.00 | 0.01 | 0.01 | 95 | 1023.5 |
| 20260503195027 | 59 | 165 | 1.7 | 4.3 | 0.00 | 0.01 | 0.01 | 96 | 1023.3 |
| 20260503194525 | 59 | 124 | 3.5 | 5.2 | 0.00 | 0.01 | 0.01 | 96 | 1023.2 |
| 20260503194024 | 59 | 98 | 6.1 | 7.8 | 0.00 | 0.01 | 0.01 | 97 | 1023.3 |
| 20260503193521 | 59 | 196 | 2.6 | 4.3 | 0.00 | 0.01 | 0.01 | 98 | 1023.4 |
| 20260503193016 | 59 | 93 | 1.7 | 1.7 | 0.00 | 0.01 | 0.01 | 98 | 1023.2 |
| 20260503192512 | 59 | 148 | 5.2 | 7.0 | 0.00 | 0.01 | 0.01 | 98 | 1023.0 |
| 20260503192008 | 58 | 69 | 2.6 | 2.6 | 0.00 | 0.01 | 0.01 | 98 | 1023.0 |
| 20260503191505 | 58 | 110 | 5.2 | 7.0 | 0.00 | 0.01 | 0.01 | 98 | 1023.2 |
| 20260503191002 | 58 | 186 | 13.9 | 15.6 | 0.00 | 0.01 | 0.01 | 97 | 1022.8 |
| 20260503190459 | 59 | 158 | 14.8 | 17.4 | 0.00 | 0.01 | 0.01 | 96 | 1022.8 |
| 20260503185956 | 59 | 180 | 5.2 | 7.0 | 0.00 | 0.01 | 0.01 | 97 | 1022.9 |
| 20260503185452 | 59 | 111 | 9.6 | 13.9 | 0.00 | 0.01 | 0.01 | 96 | 1022.8 |
| 20260503184952 | 60 | 144 | 9.6 | 13.0 | 0.00 | 0.01 | 0.01 | 94 | 1023.0 |
| 20260503184448 | 60 | 137 | 5.2 | 7.0 | 0.00 | 0.01 | 0.01 | 94 | 1022.7 |
| 20260503183945 | 60 | 152 | 6.1 | 9.6 | 0.00 | 0.01 | 0.01 | 93 | 1022.7 |
| 20260503183441 | 61 | 176 | 7.0 | 8.7 | 0.00 | 0.01 | 0.01 | 91 | 1022.7 |
| 20260503182938 | 61 | 149 | 4.3 | 9.6 | 0.00 | 0.01 | 0.01 | 89 | 1023.0 |
| 20260503182437 | 61 | 315 | 2.6 | 2.6 | 0.00 | 0.01 | 0.01 | 89 | 1022.6 |
| 20260503181934 | 61 | 301 | 2.6 | 4.3 | 0.00 | 0.01 | 0.01 | 89 | 1022.8 |
| 20260503181431 | 61 | 57 | 7.8 | 11.3 | 0.00 | 0.01 | 0.01 | 89 | 1022.8 |
| 20260503180927 | 61 | 64 | 2.6 | 2.6 | 0.00 | 0.01 | 0.01 | 89 | 1022.9 |
| 20260503180427 | 61 | 96 | 4.3 | 7.0 | 0.00 | 0.01 | 0.01 | 89 | 1022.8 |
| 20260503175922 | 61 | 156 | 4.3 | 6.1 | 0.00 | 0.01 | 0.01 | 89 | 1022.8 |
| 20260503175421 | 61 | 91 | 3.5 | 4.3 | 0.00 | 0.01 | 0.01 | 90 | 1023.0 |
| 20260503174916 | 61 | 238 | 5.2 | 7.0 | 0.00 | 0.01 | 0.01 | 90 | 1023.0 |
| 20260503174414 | 60 | 110 | 6.1 | 8.7 | 0.00 | 0.01 | 0.01 | 91 | 1022.9 |
| 20260503173909 | 60 | 187 | 7.0 | 11.3 | 0.00 | 0.01 | 0.01 | 93 | 1023.0 |
| 20260503173405 | 60 | 160 | 7.8 | 8.7 | 0.00 | 0.01 | 0.01 | 93 | 1022.9 |
| 20260503172902 | 61 | 352 | 4.3 | 8.7 | 0.00 | 0.01 | 0.01 | 93 | 1022.8 |
| 20260503172400 | 61 | 174 | 5.2 | 7.8 | 0.00 | 0.01 | 0.01 | 91 | 1023.4 |
| 20260503171855 | 61 | 216 | 3.5 | 5.2 | 0.00 | 0.01 | 0.01 | 91 | 1023.0 |
| 20260503171352 | 61 | 140 | 7.8 | 9.6 | 0.00 | 0.01 | 0.01 | 90 | 1023.0 |
| 20260503170850 | 62 | 124 | 4.3 | 6.1 | 0.00 | 0.01 | 0.01 | 89 | 1023.0 |
| 20260503170346 | 62 | 30 | 2.6 | 5.2 | 0.00 | 0.01 | 0.01 | 89 | 1023.0 |